sat.trackr.live / text

‹ back to catalog

GAOFEN-3 03

NORAD 52200 · 2022-035A

PAYLOAD ACTIVE UNKNOWN

§ Identity

Operator
Country
PRC
Launch date
2022-04-06
Launch site
JSC
Launch vehicle
Mass (kg)
RCS (m²)

External: N2YO · Heavens-Above · Gunter

§ Orbital elements

Epoch: 2026-05-25T04:42:30.512736Z

Period
99.85 min
Inclination
98.4072°
Eccentricity
0.0000959
Mean motion
14.42220464 rev/d
Perigee alt
750.5 km
Apogee alt
751.9 km
Semi-major
7,129.3 km
B*
6.3926e-5
RAAN
154.1107°
Arg perigee
87.6005°
Mean anomaly
272.5294°
Rev number
21,753

§ Raw data

GAOFEN-3 031 52200U 22035A   26145.19618649  .00000167  00000+0  63926-4 0  99962 52200  98.4072 154.1107 0000959  87.6005 272.5294 14.42220464217537

JSON: /api/v1/satellites/52200 · /tle

For live sub-satellite position, see the globe view (requires WebGL).

§ Visibility from observer

Set your observer location to see the next 7 days of passes ≥ 10°. The values pass through the URL so the page stays shareable.

No JS? Fill the form by hand. The geolocation button needs JavaScript.

§ Radio — SatNOGS DB

ModeDescriptionDownlinkUplink
FM S-band telemetry 2.208 GHz

1 transmitter · refreshed weekly from db.satnogs.org